GW4214 Weather Reports


Display with metric or nautical units.
time (UTC)temp
F
wind
direction
speed
MPH
gust
MPH
rain 1hr
in
rain 24hr
in
rain mn
in
humidity
%
barometer
mb
20260901000513 85 217 0.0 0.0 0.00 0.00 0.00 38 1009.7
20260901000009 85 229 0.0 0.0 0.00 0.00 0.00 38 1010.0
20260831235503 86 191 0.0 0.0 0.00 0.00 0.00 39 1009.7
20260831234958 87 205 0.0 0.0 0.00 0.00 0.00 39 1009.7
20260831234453 88 180 0.0 0.0 0.00 0.00 0.00 38 1009.7
20260831233948 89 240 0.0 0.0 0.00 0.00 0.00 37 1009.7
20260831233443 88 209 0.0 0.0 0.00 0.00 0.00 38 1010.0
20260831232939 86 204 0.0 0.0 0.00 0.00 0.00 39 1009.7
20260831232435 86 200 0.0 0.0 0.00 0.00 0.00 40 1009.7
20260831231930 86 172 0.0 0.0 0.00 0.00 0.00 40 1010.0
20260831231426 87 12 1.0 2.0 0.00 0.00 0.00 37 1010.0
20260831230922 85 171 0.0 0.0 0.00 0.00 0.00 40 1010.4
20260831230417 85 208 0.0 0.0 0.00 0.00 0.00 42 1010.4
20260831225911 84 201 0.0 0.0 0.00 0.00 0.00 42 1010.0
20260831225407 83 188 0.0 0.0 0.00 0.00 0.00 44 1010.4
20260831224902 84 167 0.0 0.0 0.00 0.00 0.00 43 1010.4
20260831224401 88 164 0.0 0.0 0.00 0.00 0.00 38 1010.4
20260831223856 88 160 0.0 0.0 0.00 0.00 0.00 39 1010.0
20260831223352 88 208 0.0 0.0 0.00 0.00 0.00 39 1010.4
20260831222849 88 188 0.0 0.0 0.00 0.00 0.00 38 1010.4
20260831222344 86 211 0.0 0.0 0.00 0.00 0.00 41 1010.4
20260831221839 84 84 0.0 0.0 0.00 0.00 0.00 42 1010.4
20260831221335 85 226 0.0 0.0 0.00 0.00 0.00 45 1010.4
20260831220830 84 208 0.0 0.0 0.00 0.00 0.00 42 1010.4
20260831220325 83 238 0.0 0.0 0.00 0.00 0.00 44 1010.4
20260831215820 83 203 0.0 0.0 0.00 0.00 0.00 46 1010.7
20260831215316 84 200 0.0 0.0 0.00 0.00 0.00 44 1010.7
20260831214813 82 215 0.0 0.0 0.00 0.00 0.00 44 1010.7
20260831214310 80 216 0.0 0.0 0.00 0.00 0.00 46 1010.7
20260831213805 82 211 0.0 0.0 0.00 0.00 0.00 47 1011.1
20260831213301 84 177 0.0 0.0 0.00 0.00 0.00 44 1011.1
20260831212756 84 197 0.0 0.0 0.00 0.00 0.00 43 1011.1
20260831212253 83 207 0.0 0.0 0.00 0.00 0.00 44 1011.1
20260831211751 81 206 0.0 0.0 0.00 0.00 0.00 46 1011.1
20260831211246 81 206 0.0 0.0 0.00 0.00 0.00 45 1011.1
20260831210741 81 217 0.0 0.0 0.00 0.00 0.00 45 1011.5
20260831210237 79 210 0.0 0.0 0.00 0.00 0.00 48 1011.5
20260831205736 79 215 0.0 0.0 0.00 0.00 0.00 49 1011.5
20260831205233 79 224 0.0 0.0 0.00 0.00 0.00 50 1011.5
20260831204732 79 246 0.0 0.0 0.00 0.00 0.00 48 1011.5
20260831204231 80 185 0.0 0.0 0.00 0.00 0.00 48 1011.5
20260831203725 79 226 0.0 0.0 0.00 0.00 0.00 48 1011.5
20260831203225 79 246 0.0 0.0 0.00 0.00 0.00 50 1012.1
20260831202724 78 153 0.0 0.0 0.00 0.00 0.00 49 1011.5
20260831202219 78 206 0.0 0.0 0.00 0.00 0.00 52 1011.8
20260831201718 78 214 0.0 0.0 0.00 0.00 0.00 50 1012.1
20260831201213 77 198 0.0 0.0 0.00 0.00 0.00 52 1012.1
20260831200709 78 198 0.0 0.0 0.00 0.00 0.00 51 1012.1
20260831200208 78 204 0.0 0.0 0.00 0.00 0.00 50 1012.1
20260831195703 78 213 0.0 0.0 0.00 0.00 0.00 49 1012.1
20260831195159 77 211 0.0 0.0 0.00 0.00 0.00 51 1012.1
20260831194653 77 201 0.0 0.0 0.00 0.00 0.00 53 1012.5
20260831194149 76 316 1.0 5.0 0.00 0.00 0.00 52 1012.5
20260831193643 76 164 1.0 1.0 0.00 0.00 0.00 53 1012.5
20260831193139 76 239 4.0 5.0 0.00 0.00 0.00 54 1012.5
20260831192634 76 38 0.0 0.0 0.00 0.00 0.00 53 1012.5
20260831192129 74 204 0.0 0.0 0.00 0.00 0.00 55 1012.5
20260831191625 73 179 0.0 0.0 0.00 0.00 0.00 58 1012.8
20260831191120 73 212 0.0 0.0 0.00 0.00 0.00 58 1012.8
20260831190610 73 277 0.0 0.0 0.00 0.00 0.00 57 1012.8
20260831190108 72 199 0.0 0.0 0.00 0.00 0.00 60 1012.8
20260831185559 72 9 0.0 0.0 0.00 0.00 0.00 60 1013.2
20260831185054 73 300 0.0 2.0 0.00 0.00 0.00 57 1012.8
20260831184548 73 103 1.0 2.0 0.00 0.00 0.00 59 1012.8
20260831184044 72 337 0.0 1.0 0.00 0.00 0.00 60 1012.8
20260831183542 71 285 2.0 3.0 0.00 0.00 0.00 61 1013.2
20260831183037 70 242 2.0 3.0 0.00 0.00 0.00 63 1013.2
20260831182536 71 317 3.0 5.0 0.00 0.00 0.00 61 1013.2
20260831182032 69 184 1.0 2.0 0.00 0.00 0.00 63 1013.2
20260831181527 68 199 1.0 2.0 0.00 0.00 0.00 66 1013.2
20260831181027 68 238 0.0 0.0 0.00 0.00 0.00 67 1013.2
20260831180521 69 217 0.0 0.0 0.00 0.00 0.00 65 1013.2
20260831180016 69 241 0.0 1.0 0.00 0.00 0.00 65 1013.5
20260831175512 68 239 1.0 1.0 0.00 0.00 0.00 65 1013.2
20260831175009 68 231 2.0 3.0 0.00 0.00 0.00 67 1013.5
20260831174503 69 231 1.0 2.0 0.00 0.00 0.00 64 1013.5
20260831174002 68 208 0.0 1.0 0.00 0.00 0.00 66 1013.5
20260831173500 68 197 2.0 3.0 0.00 0.00 0.00 68 1013.8
20260831172957 68 236 1.0 2.0 0.00 0.00 0.00 67 1013.8
20260831172453 67 211 0.0 0.0 0.00 0.00 0.00 69 1013.8
20260831171948 66 192 1.0 2.0 0.00 0.00 0.00 71 1013.8
20260831171443 65 207 0.0 0.0 0.00 0.00 0.00 73 1013.8
20260831170939 65 214 2.0 2.0 0.00 0.00 0.00 72 1013.8
20260831170430 65 196 2.0 2.0 0.00 0.00 0.00 72 1014.2
20260831165927 65 201 1.0 1.0 0.00 0.00 0.00 74 1014.2
20260831165422 64 210 0.0 0.0 0.00 0.00 0.00 74 1013.8
20260831164919 64 202 0.0 0.0 0.00 0.00 0.00 76 1013.8
20260831164415 63 200 1.0 1.0 0.00 0.00 0.00 77 1014.2
20260831163910 62 200 0.0 0.0 0.00 0.00 0.00 78 1014.2
20260831163405 61 217 0.0 0.0 0.00 0.00 0.00 80 1014.2
20260831162904 61 216 0.0 0.0 0.00 0.00 0.00 81 1014.2
20260831162359 61 52 2.0 2.0 0.00 0.00 0.00 82 1014.2
20260831161857 60 208 1.0 2.0 0.00 0.00 0.00 82 1014.5
20260831161354 60 219 0.0 1.0 0.00 0.00 0.00 83 1014.2
20260831160849 60 225 1.0 1.0 0.00 0.00 0.00 84 1014.5
20260831160344 59 289 2.0 2.0 0.00 0.00 0.00 84 1014.5
20260831155839 59 104 2.0 2.0 0.00 0.00 0.00 85 1014.2
20260831155338 59 187 1.0 1.0 0.00 0.00 0.00 86 1014.2
20260831154834 59 208 0.0 0.0 0.00 0.00 0.00 88 1014.5
20260831154330 58 156 0.0 0.0 0.00 0.00 0.00 88 1014.5
20260831153828 58 218 0.0 0.0 0.00 0.00 0.00 89 1014.5
20260831153325 58 215 0.0 1.0 0.00 0.00 0.00 90 1014.2
20260831152821 57 207 0.0 0.0 0.00 0.00 0.00 91 1014.2
20260831152316 57 261 1.0 2.0 0.00 0.00 0.00 92 1014.5
20260831151811 57 214 0.0 1.0 0.00 0.00 0.00 93 1014.5
20260831151310 56 208 0.0 0.0 0.00 0.00 0.00 93 1014.5
20260831150806 56 219 0.0 0.0 0.00 0.00 0.00 94 1014.2
20260831150301 56 221 1.0 1.0 0.00 0.00 0.00 95 1014.2
20260831145800 55 228 1.0 1.0 0.00 0.00 0.00 96 1014.5
20260831145256 55 222 1.0 1.0 0.00 0.00 0.00 96 1014.5
20260831144751 55 217 0.0 1.0 0.00 0.00 0.00 96 1014.9
20260831144248 54 215 0.0 0.0 0.00 0.00 0.00 96 1014.5
20260831143748 54 215 0.0 0.0 0.00 0.00 0.00 96 1014.9
20260831143243 54 209 0.0 0.0 0.00 0.00 0.00 97 1014.5
20260831142738 53 212 0.0 0.0 0.00 0.00 0.00 96 1014.2
20260831142233 53 213 0.0 0.0 0.00 0.00 0.00 96 1014.2
20260831141733 53 215 0.0 0.0 0.00 0.00 0.00 96 1014.2
20260831141228 52 214 0.0 0.0 0.00 0.00 0.00 96 1014.5
20260831140728 52 213 0.0 0.0 0.00 0.00 0.00 96 1014.5
20260831140222 52 213 0.0 0.0 0.00 0.00 0.00 96 1014.2
20260831135720 52 215 0.0 0.0 0.00 0.00 0.00 96 1014.5
20260831135216 52 215 0.0 0.0 0.00 0.00 0.00 96 1014.2
20260831134712 52 214 0.0 0.0 0.00 0.00 0.00 96 1014.5
20260831134208 52 213 0.0 0.0 0.00 0.00 0.00 95 1014.2
20260831133706 52 212 0.0 0.0 0.00 0.00 0.00 95 1014.5
20260831133201 52 215 0.0 0.0 0.00 0.00 0.00 95 1014.2
20260831132657 52 215 0.0 0.0 0.00 0.00 0.00 95 1014.5
20260831132156 52 214 0.0 0.0 0.00 0.00 0.00 95 1014.9
20260831131651 52 211 0.0 0.0 0.00 0.00 0.00 95 1014.9
20260831131148 52 214 0.0 0.0 0.00 0.00 0.00 95 1014.5
20260831130642 52 212 0.0 0.0 0.00 0.00 0.00 95 1014.9
20260831130138 52 213 0.0 0.0 0.00 0.00 0.00 95 1014.9
20260831125636 52 211 0.0 0.0 0.00 0.00 0.00 94 1014.5
20260831125132 52 213 0.0 0.0 0.00 0.00 0.00 94 1014.5
20260831124628 52 215 0.0 0.0 0.00 0.00 0.00 94 1014.5
20260831124124 52 210 0.0 0.0 0.00 0.00 0.00 94 1014.9
20260831123623 52 209 0.0 0.0 0.00 0.00 0.00 94 1014.9
20260831123122 52 209 0.0 0.0 0.00 0.00 0.00 94 1014.9
20260831122622 53 209 0.0 0.0 0.00 0.00 0.00 94 1014.9
20260831122119 53 210 0.0 0.0 0.00 0.00 0.00 94 1015.2
20260831121618 53 209 0.0 0.0 0.00 0.00 0.00 93 1014.9
20260831121115 53 214 0.0 0.0 0.00 0.00 0.00 93 1014.9
20260831120615 53 215 0.0 0.0 0.00 0.00 0.00 93 1014.9
20260831120110 53 212 0.0 0.0 0.00 0.00 0.00 93 1014.9
20260831115605 53 210 0.0 0.0 0.00 0.00 0.00 93 1014.9
20260831115101 53 210 0.0 0.0 0.00 0.00 0.00 92 1014.9
20260831114559 53 210 0.0 0.0 0.00 0.00 0.00 92 1014.9
20260831114055 53 212 0.0 0.0 0.00 0.00 0.00 92 1014.9
20260831113553 54 212 0.0 0.0 0.00 0.00 0.00 92 1014.9
20260831113050 54 213 0.0 0.0 0.00 0.00 0.00 92 1014.9
20260831112548 54 216 0.0 0.0 0.00 0.00 0.00 92 1015.2
20260831112044 54 216 0.0 0.0 0.00 0.00 0.00 92 1015.2
20260831111540 54 216 0.0 0.0 0.00 0.00 0.00 92 1015.2
20260831111036 54 216 0.0 0.0 0.00 0.00 0.00 92 1015.2
20260831110531 54 212 0.0 0.0 0.00 0.00 0.00 91 1015.2
20260831110026 54 211 0.0 0.0 0.00 0.00 0.00 91 1015.2
20260831105519 54 213 0.0 0.0 0.00 0.00 0.00 91 1015.2
20260831105014 54 213 0.0 0.0 0.00 0.00 0.00 91 1015.2
20260831104510 54 213 0.0 0.0 0.00 0.00 0.00 91 1015.2
20260831104006 54 216 0.0 0.0 0.00 0.00 0.00 91 1015.2
20260831103501 54 214 0.0 0.0 0.00 0.00 0.00 91 1015.2
20260831102957 54 213 0.0 0.0 0.00 0.00 0.00 90 1015.2
20260831102456 54 206 0.0 0.0 0.00 0.00 0.00 90 1015.5
20260831101952 54 213 0.0 0.0 0.00 0.00 0.00 90 1015.2
20260831101446 55 214 0.0 0.0 0.00 0.00 0.00 89 1015.2
20260831100943 55 215 0.0 0.0 0.00 0.00 0.00 90 1015.2
20260831100439 55 214 0.0 0.0 0.00 0.00 0.00 89 1015.5
20260831095933 55 215 0.0 0.0 0.00 0.00 0.00 89 1015.2
20260831095433 55 212 0.0 0.0 0.00 0.00 0.00 89 1015.5
20260831094928 55 212 0.0 0.0 0.00 0.00 0.00 89 1015.5
20260831094424 55 215 0.0 0.0 0.00 0.00 0.00 88 1015.5
20260831093920 56 213 0.0 0.0 0.00 0.00 0.00 88 1015.5
20260831093414 56 213 0.0 0.0 0.00 0.00 0.00 88 1015.5
20260831092911 56 215 0.0 0.0 0.00 0.00 0.00 88 1015.5
20260831092407 56 215 0.0 0.0 0.00 0.00 0.00 88 1015.9
20260831091901 56 216 0.0 0.0 0.00 0.00 0.00 88 1015.9
20260831091357 56 213 0.0 0.0 0.00 0.00 0.00 87 1015.9
20260831090852 56 210 0.0 0.0 0.00 0.00 0.00 87 1015.9
20260831090348 57 210 0.0 0.0 0.00 0.00 0.00 87 1015.9
20260831085845 57 210 0.0 0.0 0.00 0.00 0.00 86 1016.2
20260831085344 57 212 0.0 0.0 0.00 0.00 0.00 86 1016.2
20260831084844 57 214 0.0 0.0 0.00 0.00 0.00 85 1016.2
20260831084340 57 214 0.0 0.0 0.00 0.00 0.00 84 1015.9
20260831083837 58 216 0.0 0.0 0.00 0.00 0.00 84 1016.2
20260831083332 58 215 0.0 0.0 0.00 0.00 0.00 83 1016.2
20260831082830 58 216 0.0 0.0 0.00 0.00 0.00 83 1015.9
20260831082326 59 216 0.0 0.0 0.00 0.00 0.00 83 1016.5
20260831081821 59 217 0.0 0.0 0.00 0.00 0.00 82 1016.2
20260831081317 59 219 0.0 0.0 0.00 0.00 0.00 82 1016.2
20260831080812 59 221 0.0 0.0 0.00 0.00 0.00 82 1016.5
20260831080307 59 226 0.0 1.0 0.00 0.00 0.00 82 1016.2
20260831075803 59 215 0.0 0.0 0.00 0.00 0.00 82 1016.9
20260831075258 59 216 0.0 0.0 0.00 0.00 0.00 81 1016.5
20260831074758 59 221 0.0 1.0 0.00 0.00 0.00 81 1016.9
20260831074251 59 221 1.0 1.0 0.00 0.00 0.00 81 1016.5
20260831073748 60 223 0.0 1.0 0.00 0.00 0.00 80 1016.5
20260831073246 60 225 1.0 1.0 0.00 0.00 0.00 80 1016.5
20260831072741 60 216 0.0 0.0 0.00 0.00 0.00 80 1016.5
20260831072238 60 216 0.0 0.0 0.00 0.00 0.00 79 1016.5
20260831071738 60 220 0.0 1.0 0.00 0.00 0.00 78 1016.5
20260831071233 61 219 0.0 0.0 0.00 0.00 0.00 78 1016.9
20260831070732 61 218 0.0 0.0 0.00 0.00 0.00 78 1016.9
20260831070226 61 217 0.0 1.0 0.00 0.00 0.00 77 1016.9
20260831065725 61 218 0.0 0.0 0.00 0.00 0.00 77 1016.9
20260831065224 61 215 0.0 0.0 0.00 0.00 0.00 77 1017.2
20260831064719 62 217 0.0 0.0 0.00 0.00 0.00 76 1017.2
20260831064214 62 220 0.0 1.0 0.00 0.00 0.00 76 1017.2
20260831063710 62 216 0.0 0.0 0.00 0.00 0.00 75 1017.2
20260831063205 62 217 0.0 0.0 0.00 0.00 0.00 75 1017.2
20260831062705 62 230 1.0 1.0 0.00 0.00 0.00 74 1017.2
20260831062205 63 207 0.0 0.0 0.00 0.00 0.00 74 1017.2
20260831061703 63 230 0.0 1.0 0.00 0.00 0.00 73 1017.2
20260831061159 63 159 1.0 2.0 0.00 0.00 0.00 73 1017.2
20260831060655 63 224 1.0 2.0 0.00 0.00 0.00 72 1017.2
20260831060154 63 229 0.0 1.0 0.00 0.00 0.00 72 1017.2
20260831055654 64 260 1.0 1.0 0.00 0.00 0.00 71 1017.2
20260831055149 64 213 0.0 0.0 0.00 0.00 0.00 70 1017.2
20260831054644 64 215 0.0 0.0 0.00 0.00 0.00 70 1017.2
20260831054143 64 217 1.0 2.0 0.00 0.00 0.00 69 1017.2
20260831053638 64 228 2.0 2.0 0.00 0.00 0.00 68 1017.6
20260831053137 64 221 1.0 1.0 0.00 0.00 0.00 68 1017.6
20260831052636 65 203 0.0 1.0 0.00 0.00 0.00 68 1017.6
20260831052135 65 260 1.0 2.0 0.00 0.00 0.00 67 1017.6
20260831051634 65 348 4.0 6.0 0.00 0.00 0.00 66 1017.6
20260831051127 65 260 1.0 2.0 0.00 0.00 0.00 66 1017.6
20260831050621 65 233 1.0 1.0 0.00 0.00 0.00 66 1017.9
20260831050115 66 216 2.0 3.0 0.00 0.00 0.00 65 1017.9
20260831045614 66 5 4.0 5.0 0.00 0.00 0.00 65 1017.6
20260831045109 66 294 2.0 2.0 0.00 0.00 0.00 64 1017.9
20260831044604 66 254 1.0 2.0 0.00 0.00 0.00 64 1017.9
20260831044059 67 225 3.0 5.0 0.00 0.00 0.00 64 1017.9
20260831043555 67 260 1.0 2.0 0.00 0.00 0.00 63 1017.9
20260831043051 67 4 6.0 8.0 0.00 0.00 0.00 63 1017.9
20260831042550 67 351 2.0 3.0 0.00 0.00 0.00 62 1017.9
20260831042045 67 209 1.0 1.0 0.00 0.00 0.00 62 1017.6
20260831041540 68 1 3.0 5.0 0.00 0.00 0.00 61 1017.9
20260831041038 68 246 1.0 1.0 0.00 0.00 0.00 61 1017.9
20260831040533 68 356 4.0 5.0 0.00 0.00 0.00 61 1017.9
20260831040028 68 228 1.0 1.0 0.00 0.00 0.00 60 1017.9
20260831035525 68 212 1.0 2.0 0.00 0.00 0.00 60 1017.9
20260831035021 68 215 1.0 1.0 0.00 0.00 0.00 60 1017.9
20260831034515 68 235 1.0 1.0 0.00 0.00 0.00 59 1017.9
20260831034010 69 188 1.0 2.0 0.00 0.00 0.00 59 1017.6
20260831033506 69 262 2.0 2.0 0.00 0.00 0.00 58 1017.6
20260831033001 69 19 1.0 2.0 0.00 0.00 0.00 58 1017.9
20260831032501 69 227 1.0 2.0 0.00 0.00 0.00 58 1017.6
20260831031956 69 207 3.0 3.0 0.00 0.00 0.00 58 1017.9
20260831031455 70 238 3.0 3.0 0.00 0.00 0.00 58 1017.9
20260831030955 70 20 1.0 2.0 0.00 0.00 0.00 57 1017.9
20260831030454 70 217 1.0 2.0 0.00 0.00 0.00 58 1017.6
20260831025952 71 35 1.0 2.0 0.00 0.00 0.00 58 1017.9
20260831025452 71 212 3.0 3.0 0.00 0.00 0.00 58 1017.9
20260831024948 71 205 3.0 3.0 0.00 0.00 0.00 57 1017.9
20260831024443 71 189 2.0 5.0 0.00 0.00 0.00 57 1017.6
20260831023942 71 247 2.0 2.0 0.00 0.00 0.00 57 1017.9
20260831023440 72 16 4.0 6.0 0.00 0.00 0.00 56 1017.6
20260831022936 72 38 2.0 2.0 0.00 0.00 0.00 56 1017.9
20260831022435 72 186 1.0 3.0 0.00 0.00 0.00 55 1017.6
20260831021930 72 24 4.0 5.0 0.00 0.00 0.00 55 1017.9
20260831021429 72 345 1.0 2.0 0.00 0.00 0.00 55 1017.9
20260831020925 73 250 3.0 3.0 0.00 0.00 0.00 54 1017.6
20260831020425 73 208 0.0 1.0 0.00 0.00 0.00 54 1017.6
20260831015920 73 276 2.0 2.0 0.00 0.00 0.00 54 1017.6
20260831015416 73 213 1.0 1.0 0.00 0.00 0.00 54 1017.9
20260831014911 73 13 1.0 1.0 0.00 0.00 0.00 54 1017.9
20260831014410 73 33 3.0 5.0 0.00 0.00 0.00 53 1017.6
20260831013906 73 21 3.0 8.0 0.00 0.00 0.00 53 1018.2
20260831013401 73 34 5.0 9.0 0.00 0.00 0.00 53 1018.2
20260831012856 73 15 3.0 9.0 0.00 0.00 0.00 53 1018.2
20260831012351 74 10 3.0 3.0 0.00 0.00 0.00 53 1017.9
20260831011846 74 314 8.0 10.0 0.00 0.00 0.00 52 1017.9
20260831011340 74 34 2.0 5.0 0.00 0.00 0.00 53 1018.2
20260831010836 74 300 9.0 11.0 0.00 0.00 0.00 52 1017.9
20260831010335 74 349 7.0 9.0 0.00 0.00 0.00 51 1018.2
20260831005832 74 199 3.0 8.0 0.00 0.00 0.00 51 1018.2
20260831005328 75 7 1.0 2.0 0.00 0.00 0.00 51 1018.2
20260831004827 75 235 0.0 0.0 0.00 0.00 0.00 51 1018.6
20260831004324 75 18 5.0 7.0 0.00 0.00 0.00 50 1018.6
20260831003819 76 228 6.0 11.0 0.00 0.00 0.00 49 1018.6
20260831003316 76 253 0.0 0.0 0.00 0.00 0.00 49 1018.6
20260831002815 75 340 0.0 0.0 0.00 0.00 0.00 49 1018.6
20260831002314 76 204 2.0 6.0 0.00 0.00 0.00 50 1018.9
20260831001810 77 355 3.0 3.0 0.00 0.00 0.00 48 1018.6
20260831001305 77 342 3.0 5.0 0.00 0.00 0.00 47 1018.6
20260831000803 77 183 4.0 7.0 0.00 0.00 0.00 48 1018.9